• In Uzbekistan
  • List of Countries
  • For 7 days
  • Water Temperature
  • Weather Map
  • Weather Widgets
  • user-avatar
    Login

    Hourly Weather Nha Trang

    Today, 9 December, Monday

    Time Temperature Precipitation Wind Pressure Humidity
    00:00 +20°C° 0 mm 4 mps 751 mmHg 85%
    01:00 +20°C° 0 mm 4 mps 751 mmHg 82%
    02:00 +20°C° 0 mm 4 mps 751 mmHg 82%
    03:00 +20°C° 0 mm 4 mps 751 mmHg 83%
    04:00 +20°C° 0 mm 4 mps 750 mmHg 83%
    05:00 +20°C° 0 mm 3 mps 751 mmHg 83%
    06:00 +21°C° 0 mm 3 mps 751 mmHg 84%
    07:00 +21°C° 0 mm 3 mps 751 mmHg 84%
    08:00 +24°C° 0 mm 3 mps 751 mmHg 79%
    09:00 +25°C° 0 mm 4 mps 751 mmHg 75%
    10:00 +26°C° 0 mm 4 mps 751 mmHg 71%
    11:00 +26°C° 0 mm 5 mps 750 mmHg 70%
    12:00 +27°C° 0 mm 5 mps 750 mmHg 69%
    13:00 +27°C° 0 mm 5 mps 749 mmHg 67%
    14:00 +26°C° 0 mm 5 mps 749 mmHg 71%
    15:00 +26°C° 0 mm 5 mps 749 mmHg 74%
    16:00 +25°C° 0 mm 5 mps 749 mmHg 77%
    17:00 +23°C° 0 mm 5 mps 749 mmHg 81%
    18:00 +22°C° 0 mm 4 mps 750 mmHg 85%
    19:00 +21°C° 0 mm 4 mps 750 mmHg 89%
    20:00 +21°C° 0 mm 4 mps 751 mmHg 90%
    21:00 +21°C° 0 mm 3 mps 751 mmHg 90%
    22:00 +20°C° 0 mm 3 mps 751 mmHg 91%
    23:00 +20°C° 0 mm 3 mps 750 mmHg 91%

    Tomorrow, 10 December, Tuesday

    Time Temperature Precipitation Wind Pressure Humidity
    00:00 +20°C° 0 mm 3 mps 750 mmHg 91%
    01:00 +20°C° 0 mm 3 mps 750 mmHg 91%
    02:00 +20°C° 0 mm 3 mps 749 mmHg 91%
    03:00 +19°C° 0 mm 3 mps 749 mmHg 91%
    04:00 +19°C° 0 mm 3 mps 749 mmHg 92%
    05:00 +20°C° 0 mm 3 mps 749 mmHg 90%
    06:00 +20°C° 0 mm 3 mps 749 mmHg 89%
    07:00 +20°C° 0 mm 3 mps 749 mmHg 88%
    08:00 +22°C° 0 mm 3 mps 750 mmHg 81%
    09:00 +25°C° 0 mm 3 mps 750 mmHg 74%
    10:00 +26°C° 0 mm 3 mps 750 mmHg 67%
    11:00 +26°C° 0 mm 4 mps 749 mmHg 67%
    12:00 +27°C° 0 mm 4 mps 749 mmHg 66%
    13:00 +27°C° 0 mm 5 mps 748 mmHg 66%
    14:00 +27°C° 0 mm 5 mps 748 mmHg 69%
    15:00 +26°C° 0 mm 5 mps 748 mmHg 71%
    16:00 +26°C° 0 mm 4 mps 747 mmHg 74%
    17:00 +25°C° 0 mm 4 mps 748 mmHg 78%
    18:00 +23°C° 0 mm 4 mps 748 mmHg 82%
    19:00 +22°C° 0 mm 3 mps 749 mmHg 85%
    20:00 +21°C° 0 mm 3 mps 749 mmHg 87%
    21:00 +21°C° 0 mm 3 mps 749 mmHg 88%
    22:00 +21°C° 0 mm 3 mps 750 mmHg 89%
    23:00 +20°C° 0 mm 3 mps 749 mmHg 89%

    Day after tomorrow, 11 December, Wednesday

    Time Temperature Precipitation Wind Pressure Humidity
    00:00 +20°C° 0 mm 3 mps 749 mmHg 89%
    01:00 +20°C° 0 mm 3 mps 749 mmHg 90%
    02:00 +20°C° 0 mm 3 mps 749 mmHg 89%
    03:00 +19°C° 0 mm 3 mps 748 mmHg 89%
    04:00 +19°C° 0 mm 3 mps 748 mmHg 88%
    05:00 +20°C° 0 mm 3 mps 748 mmHg 87%
    06:00 +20°C° 0 mm 2 mps 749 mmHg 85%
    07:00 +21°C° 0 mm 2 mps 749 mmHg 84%
    08:00 +22°C° 0 mm 3 mps 749 mmHg 78%
    09:00 +25°C° 0 mm 3 mps 749 mmHg 72%
    10:00 +27°C° 0 mm 3 mps 750 mmHg 66%
    11:00 +27°C° 0 mm 4 mps 749 mmHg 66%
    12:00 +28°C° 0 mm 4 mps 748 mmHg 65%
    13:00 +28°C° 0 mm 4 mps 748 mmHg 64%
    14:00 +28°C° 0 mm 4 mps 747 mmHg 67%
    15:00 +27°C° 0 mm 4 mps 747 mmHg 69%
    16:00 +27°C° 0 mm 4 mps 747 mmHg 72%
    17:00 +25°C° 0 mm 4 mps 747 mmHg 78%
    18:00 +23°C° 0 mm 4 mps 748 mmHg 83%
    19:00 +22°C° 0 mm 3 mps 749 mmHg 88%
    20:00 +22°C° 0 mm 3 mps 749 mmHg 89%
    21:00 +21°C° 0 mm 3 mps 749 mmHg 89%
    22:00 +21°C° 0 mm 3 mps 750 mmHg 90%
    23:00 +21°C° 0.1 mm 3 mps 749 mmHg 89%

    12 December, Thursday

    Time Temperature Precipitation Wind Pressure Humidity
    00:00 +22°C° 0.1 mm 3 mps 749 mmHg 88%
    01:00 +22°C° 0.1 mm 3 mps 749 mmHg 87%
    02:00 +22°C° 0.1 mm 3 mps 749 mmHg 88%
    03:00 +22°C° 0.1 mm 3 mps 749 mmHg 89%
    04:00 +22°C° 0.1 mm 3 mps 748 mmHg 90%
    05:00 +22°C° 0.1 mm 3 mps 749 mmHg 90%
    06:00 +22°C° 0.1 mm 4 mps 749 mmHg 90%
    07:00 +22°C° 0.1 mm 4 mps 749 mmHg 89%
    08:00 +23°C° 0.1 mm 4 mps 750 mmHg 85%
    09:00 +25°C° 0.1 mm 5 mps 750 mmHg 81%
    10:00 +26°C° 0.1 mm 5 mps 750 mmHg 77%
    11:00 +26°C° 0 mm 5 mps 749 mmHg 74%
    12:00 +27°C° 0 mm 6 mps 749 mmHg 71%
    13:00 +27°C° 0 mm 6 mps 748 mmHg 68%
    14:00 +27°C° 0 mm 6 mps 748 mmHg 70%
    15:00 +26°C° 0 mm 5 mps 748 mmHg 73%
    16:00 +26°C° 0 mm 5 mps 748 mmHg 75%
    17:00 +25°C° 0 mm 5 mps 748 mmHg 80%
    18:00 +23°C° 0 mm 4 mps 749 mmHg 84%
    19:00 +22°C° 0 mm 4 mps 749 mmHg 89%
    20:00 +22°C° 0 mm 4 mps 750 mmHg 89%
    21:00 +21°C° 0 mm 3 mps 750 mmHg 90%
    22:00 +21°C° 0 mm 3 mps 750 mmHg 90%
    23:00 +21°C° 0 mm 3 mps 750 mmHg 90%

    13 December, Friday

    Time Temperature Precipitation Wind Pressure Humidity
    00:00 +21°C° 0 mm 3 mps 750 mmHg 90%
    01:00 +20°C° 0 mm 3 mps 749 mmHg 90%
    02:00 +20°C° 0 mm 3 mps 749 mmHg 90%
    03:00 +20°C° 0 mm 3 mps 749 mmHg 89%
    04:00 +20°C° 0 mm 3 mps 749 mmHg 89%
    05:00 +20°C° 0 mm 3 mps 749 mmHg 88%
    06:00 +21°C° 0 mm 3 mps 750 mmHg 86%
    07:00 +21°C° 0 mm 3 mps 750 mmHg 85%
    08:00 +24°C° 0 mm 3 mps 750 mmHg 79%
    09:00 +25°C° 0 mm 3 mps 750 mmHg 74%
    10:00 +27°C° 0 mm 3 mps 750 mmHg 68%
    11:00 +27°C° 0 mm 3 mps 750 mmHg 68%
    12:00 +28°C° 0 mm 4 mps 749 mmHg 68%
    13:00 +28°C° 0 mm 4 mps 748 mmHg 68%
    14:00 +28°C° 0 mm 4 mps 748 mmHg 70%
    15:00 +28°C° 0 mm 4 mps 748 mmHg 73%
    16:00 +28°C° 0 mm 4 mps 748 mmHg 75%
    17:00 +26°C° 0 mm 4 mps 748 mmHg 80%
    18:00 +25°C° 0 mm 4 mps 749 mmHg 86%
    19:00 +24°C° 0 mm 3 mps 749 mmHg 91%
    20:00 +24°C° 0 mm 3 mps 750 mmHg 91%
    21:00 +24°C° 0 mm 3 mps 750 mmHg 92%
    22:00 +24°C° 0 mm 3 mps 750 mmHg 92%
    23:00 +24°C° 0.1 mm 3 mps 750 mmHg 92%

    14 December, Saturday

    Time Temperature Precipitation Wind Pressure Humidity
    00:00 +24°C° 0.1 mm 3 mps 749 mmHg 92%
    01:00 +24°C° 0.1 mm 3 mps 749 mmHg 92%
    02:00 +24°C° 0.1 mm 3 mps 749 mmHg 92%
    03:00 +24°C° 0.1 mm 3 mps 749 mmHg 92%
    04:00 +24°C° 0.1 mm 3 mps 749 mmHg 92%
    05:00 +24°C° 0.1 mm 3 mps 749 mmHg 92%
    06:00 +24°C° 0.1 mm 3 mps 749 mmHg 91%
    07:00 +24°C° 0.1 mm 3 mps 750 mmHg 90%
    08:00 +26°C° 0.1 mm 3 mps 750 mmHg 87%
    09:00 +27°C° 0.1 mm 3 mps 750 mmHg 83%
    10:00 +28°C° 0.1 mm 4 mps 750 mmHg 79%
    11:00 +28°C° 0.1 mm 4 mps 749 mmHg 77%
    12:00 +29°C° 0.1 mm 4 mps 749 mmHg 75%
    13:00 +29°C° 0.1 mm 5 mps 748 mmHg 73%
    14:00 +29°C° 0 mm 5 mps 748 mmHg 75%
    15:00 +28°C° 0 mm 5 mps 748 mmHg 78%
    16:00 +28°C° 0 mm 4 mps 747 mmHg 80%
    17:00 +27°C° 0 mm 4 mps 748 mmHg 84%
    18:00 +26°C° 0 mm 3 mps 748 mmHg 89%
    19:00 +24°C° 0 mm 2 mps 749 mmHg 93%
    20:00 +24°C° 0 mm 2 mps 749 mmHg 93%
    21:00 +24°C° 0 mm 2 mps 750 mmHg 93%
    22:00 +24°C° 0 mm 2 mps 750 mmHg 93%
    23:00 +24°C° 0.1 mm 2 mps 750 mmHg 92%
    Show more